Regional Weather Roundup
Issued by NWS Kansas City/Pleasant Hill, MO

Home | Current Version | Previous Version | Text Only | Print | Product List | Glossary On
Versions: 1 2 3 4 5 6 7 8 9 10 11 12 13 14 15 16 17 18 19 20 21 22 23 24 25 26 27 28 29 30 31 32 33 34 35 36 37 38 39 40 41 42 43 44 45 46 47 48 49 50
000
ASUS43 KEAX 050010
RWREAX

WEATHER ROUNDUP FOR EASTERN KANSAS AND NORTHWEST MISSOURI
NATIONAL WEATHER SERVICE KANSAS CITY/PLEASANT HILL MO
700 PM CDT TUE AUG 04 2015

KSZ040-057-103>105-MOZ028-029-037-043-050100-
...KANSAS CITY METROPOLITAN AREA...

CITY           SKY/WX    TMP DP  RH WIND       PRES   REMARKS
K.C. INTL      LGT RAIN  71  69  93 SW9       30.01S
6HR MIN TEMP:  71; 6HR MAX TEMP:  83; 6HR PCP:  0.01;

K.C. DOWNTOWN  RAIN      73  70  90 S5        30.01R FOG
6HR MIN TEMP:  72; 6HR MAX TEMP:  85; 6HR PCP:  0.09;

LEES SUMMIT    RAIN      71  69  93 CALM      30.04R FOG
6HR MIN TEMP:  71; 6HR MAX TEMP:  84; 6HR PCP:  0.30;

OLATHE - IXD   TSTM      71  71 100 NE7       30.02S FOG
6HR MIN TEMP:  70; 6HR MAX TEMP:  86; 6HR PCP:  1.19;

OLATHE - OJC   TSTM      71  70  96 NE8       30.03R FOG
6HR MIN TEMP:  69; 6HR MAX TEMP:  83; 6HR PCP:  0.40;

LAWRENCE       LGT RAIN  71  69  93 NE5       30.01S FOG

$$

MOZ001>008-011>017-020>025-030>033-038>040-044>046-053-054-050100-
...NORTHERN AND CENTRAL MISSOURI...

CITY           SKY/WX    TMP DP  RH WIND       PRES   REMARKS
ST. JOSEPH     CLOUDY    71  67  87 SW9       29.98R THUNDER
6HR MIN TEMP:  71; 6HR MAX TEMP:  82;

MOSBY          CLOUDY    72  66  83 S5        30.01R
WARRENSBURG    CLOUDY    70  64  83 W7        30.01R
WHITEMAN AFB   TSTM      70  66  88 W9        29.98S FOG
6HR MIN TEMP:  70; 6HR MAX TEMP:  88; 6HR PCP:  0.44;

CLINTON        CLOUDY    77  73  88 CALM      29.99R
SEDALIA        CLOUDY    78  72  81 S5        29.98S THUNDER
6HR MIN TEMP:  78; 6HR MAX TEMP:  89;

WARSAW         NOT AVBL
CHILLICOTHE      N/A     79  69  71 CALM      29.98R
6HR MIN TEMP:  78; 6HR MAX TEMP:  82;

KIRKSVILLE     PTSUNNY   75  68  78 CALM      29.99R
6HR MIN TEMP:  69; 6HR MAX TEMP:  77; 6HR PCP: TRACE;


$$

MOZ041-047>049-056>058-063>065-088>090-097-050100-
...EASTERN AND SOUTHERN MISSOURI...

CITY           SKY/WX    TMP DP  RH WIND       PRES   REMARKS
ST. LOUIS INTL CLOUDY    84  70  62 E8        29.95S
6HR MIN TEMP:  84; 6HR MAX TEMP:  92;

SPIRIT OF STL  CLOUDY    82  76  81 CALM      29.93S
COLUMBIA       CLOUDY    79  73  82 SE5       29.98R
JEFFERSON CITY CLOUDY    81  73  76 SE5       29.96R
ROLLA          CLOUDY    78  70  76 E6        29.98R
OSAGE BEACH    CLOUDY    82  73  74 S5        29.98R
SPRINGFIELD    LGT RAIN  83  69  62 N5        29.99R
JOPLIN         CLOUDY    80  70  71 VRB5      29.97S
WEST PLAINS    CLOUDY    84  72  67 CALM      30.00R

$$

IAZ060-094-KSZ022-034>040-054-083-096-NEZ052-066-093-050100-
...KANSAS...SOUTHEAST NEBRASKA AND IOWA...

CITY           SKY/WX    TMP DP  RH WIND       PRES   REMARKS
TOPEKA         LGT RAIN  73  72  96 E9        29.98F
6HR MIN TEMP:  70; 6HR MAX TEMP:  88; 6HR PCP:  1.12;

MANHATTAN      CLOUDY    76  72  87 E5        29.94F
EMPORIA        CLOUDY    80  65  59 E6        29.95S
CHANUTE        CLOUDY    80  66  62 CALM      29.95R
WICHITA        MOSUNNY   80  69  69 S14       29.92F
OMAHA          PTSUNNY   77  67  71 NE9       29.96R
LINCOLN        CLOUDY    82  70  66 SW10      29.92F THUNDER
FALLS CITY     CLOUDY    76  68  76 S12G23    29.95R
LAMONI         CLOUDY    74  69  85 NE6       29.99R
DES MOINES     CLOUDY    77  60  55 E7        29.99S

$$



USA.gov is the U.S. government's official web portal to all federal, state and local government web resources and services.